Zurück zum Katalog

DELTA 1 DEB

AktivSSO
NORAD 21380·DEBRIS·🇺🇸 United States

Gestartet Jun 12, 1975 von Vandenberg Space Force Base

Loading…

Nächste Überflüge (nächste 24 Stunden)

TLE

AktuellSource: Space-Track

Epoche: Sep 14, 2026, 09:22 UTC

1 21380U 75052DA  26257.39059076  .00000756  00000-0  10054-2 0  9994
2 21380  99.4228 214.9689 0059210 296.1768 217.0316 13.63169106750766

Verfolge DELTA 1 DEB in Echtzeit mit AllMySat

Download on the App Store